Regional Weather Roundup
Issued by NWS

Home | Current Version | Previous Version | Graphics & Text | Print | Product List | Glossary On
Versions: 1 2 3 4 5 6 7 8 9 10 11 12 13 14 15 16 17 18 19 20 21 22 23 24 25 26 27 28 29 30 31 32 33 34 35 36 37 38 39 40 41 42 43 44 45 46 47 48 49 50
000
ASUS45 KCYS 161010
RWRWY

WYOMING REGIONAL WEATHER ROUNDUP
NATIONAL WEATHER SERVICE CHEYENNE WY
300 AM MST TUE JAN 16 2018

NOTE:  "FAIR" INDICATES FEW OR NO CLOUDS BELOW 12,000 FEET
WITH NO SIGNIFICANT WEATHER AND/OR OBSTRUCTIONS TO VISIBILITY.

WYZ001-161100-
YELLOWSTONE NATIONAL PARK

CITY           SKY/WX    TMP DP  RH WIND       PRES   REMARKS
LK YELLOWSTONE   N/A     -8 -12  83 CALM      30.38R
W YELLOWSTONE  NOT AVBL

$$
WYZ002>013-054>058-071-098>099-161100-
NORTHERN WYOMING

CITY           SKY/WX    TMP DP  RH WIND       PRES   REMARKS
JACKSON        FAIR      -5  -9  83 N5        30.43R WCI -16
CODY           FOG        8   6  92 CALM      30.39F VSB 1/4
GREYBULL       FAIR      -6  -9  86 SE3       30.49F
WORLAND        FAIR      -9 -11  91 NE3       30.47F
SHERIDAN       FAIR     -15 -19  82 CALM      30.42F
BUFFALO        FAIR      11  -8  42 SE7       30.37F WCI   0
GILLETTE       FAIR      -1  -9  68 S10       30.46F WCI -17
HULETT         FAIR      -8 -13  77 MISG      30.48F
NEWCASTLE      FAIR      -9 -18  64 N6        30.55F WCI -23

$$
WYZ014>020-022>026-101>103-161100-
CENTRAL WYOMING

CITY           SKY/WX    TMP DP  RH WIND       PRES   REMARKS
BIG PINEY      CLOUDY    21  16  81 S5        30.41S WCI  15
PINEDALE       CLOUDY    19  12  73 CALM      30.42R
DUBOIS         FAIR       9   3  78 NW12      30.35F WCI  -6
LANDER         FAIR      12   9  87 CALM      30.41F
RIVERTON       FAIR      14   8  77 CALM      30.43F
CASPER         FAIR       5   0  79 W9        30.44F WCI  -9
DOUGLAS        FAIR      -5  -9  83 NW3       30.49S

$$
WYZ021-027>030-104>119-161100-
SOUTHERN WYOMING

CITY           SKY/WX    TMP DP  RH WIND       PRES   REMARKS
EVANSTON       FAIR      17  13  84 E9        30.35R WCI   6
FORT BRIDGER   FAIR      13  13  96 E6        30.40F WCI   4
ROCK SPRINGS   FAIR      10   4  76 CALM      30.42S
DIXON            N/A      5  -5  61 NE5       30.47F WCI  -4
RAWLINS        FAIR      -1  -7  75 N3        30.42S
SARATOGA       FAIR       3  -8  60 SE3       30.42F
LARAMIE        FAIR      -2  -9  72 S6        30.37F WCI -14
CHEYENNE       FAIR      -3  -9  75 W5        30.40F WCI -13
TORRINGTON     FAIR      -5 -10  79 NE3       30.55F

$$



USA.gov is the U.S. government's official web portal to all federal, state and local government web resources and services.